Location: Bois de la Silve
(44.4667°N, 6.7833°E)
Time: 20:13:35
(UTC+00:00)

Meteor 1-25 Rocket - Pass Details

Date: 14 July 2020
Orbit: 837 x 890 km, 81.2° (Epoch: 14 August)

Event Time Altitude Azimuth Distance (km) Brightness Sun altitude
Exits shadow 00:47:43 47° 216° (SW) 1,115 4.4 -22.0°
Maximum altitude 00:49:18 70° 282° (WNW) 900 4.2 -22.0°
Drops below altitude 10° 00:54:53 10° 6° (N) 2,466 7.7 -21.7°
Sets 00:57:18 0° 9° (N) 3,402 8.8 -21.5°
